User: anonymous   Login
Location: Vancouver
(49.2500°N, 123.1330°W)
Time: 03:37:03
(UTC-08:00)
Language:

deb Explorer IX - Orbit

View from above orbital plane
View from above orbital plane
View from above satellite
View from above satellite

Ground track
Ground track

The orbit data is extracted from the following two-line orbital elements,

1 00085U 61004C   15030.71163493  .00020766  00000-0  51390-2 0  1192
2 00085 038.7709 269.4440 0429473 080.9199 283.9871 14.07984760652257
Epoch (UTC): 30 January 2015 17:04:45
Eccentricity: 0.0429473
inclination: 38.7709°
perigee height: 555 km
apogee height: 1177 km
right ascension of ascending node: 269.4440°
argument of perigee: 80.9199°
revolutions per day: 14.07984760
mean anomaly at epoch: 283.9871°
orbit number at epoch: 65225

The dashed part of the orbit path shows where the satellite is in the earth's shadow,  

DLR